CAPE
0 0 0 0 0 0 0 0 0 0 0 0 0 0 0 0 0 0 0 0 0 0 0 0 0 0 0 0 0 0 0 0 0 0 0 0 0 0 0 0 0 0 0 0 0 0 0
0 0 0 0 0 0 0 0 0 0 0 0 0 0 0 0 0 0 0 0 0 0 0 0 0 0 0 0 0 0 0 0 0 0 0 0 0 0 0 0 0 0 0 0 0 0 0
0 0 0 0 0 0 0 0 0 0 0 0 0 0 0 0 0 0 0 0 0 0 0 0 0 0 0 0 0 0 0 0 0 0 0 0 0 0 0 0 0 0 0 0 0 0 0
0 0 0 0 0 0 0 0 0 0 0 0 0 0 0 0 0 0 0 0 0 0 0 0 0 0 0 0 0 0 0 0 0 0 0 0 0 0 0 0 0 0 0 0 0 0 0
0 0 0 0 0 0 0 0 0 0 0 0 0 0 0 0 0 0 0 0 0 0 0 0 0 0 0 0 0 0 0 0 0 0 0 0 0 0 0 0 0 0 0 0 0 0 0
0 0 0 0 0 0 0 0 0 0 0 0 0 0 0 0 0 0 0 0 0 0 0 0 0 0 0 0 0 0 0 0 0 0 0 0 0 0 0 0 0 0 0 0 0 0 0
0 0 0 0 0 0 0 0 0 0 0 0 0 0 0 0 0 0 0 0 0 0 0 0 0 0 0 0 0 0 0 0 0 0 0 0 0 0 0 0 0 0 0 0 0 0 0
0 0 0 0 0 0 0 0 0 0 0 0 0 0 0 0 0 0 0 0 0 0 0 0 0 0 0 0 0 0 0 0 0 0 0 0 0 0 0 0 0 0 0 0 0 0 0
0 0 0 0 0 0 0 0 0 0 0 0 0 0 0 0 0 0 0 0 0 0 0 0 0 0 0 0 0 0 0 0 0 0 0 0 0 0 0 0 0 0 0 0 0 0 0
0 0 0 0 0 0 0 0 0 0 0 0 0 0 0 0 0 0 0 0 0 0 0 0 0 0 0 0 0 0 0 0 0 0 0 0 0 0 0 0 0 0 0 0 0 0 0
1 0 0 0 0 0 0 0 0 0 0 0 0 0 0 0 0 0 0 0 0 0 0 0 0 0 0 0 0 0 0 0 0 0 0 0 0 0 0 0 0 0 0 0 0 0 0
2 1 1 0 0 0 0 0 0 0 0 0 0 0 0 0 0 0 0 0 0 0 0 0 0 0 0 0 0 0 0 0 0 0 0 0 0 0 0 0 0 0 0 0 0 0 0
0 1 1 1 1 1 0 0 0 0 0 0 0 0 0 0 0 0 0 0 0 0 0 0 0 0 0 0 0 0 0 0 0 0 0 0 0 0 0 0 0 0 0 0 0 0 0
0 1 0 1 1 1 0 0 0 0 0 0 0 0 0 0 0 0 0 0 0 0 0 0 0 0 0 0 0 0 0 0 0 0 0 0 0 0 0 0 0 0 0 0 0 0 0
2 1 0 0 2 1 1 0 0 0 0 0 0 0 0 0 0 0 0 0 0 0 0 0 0 0 0 0 0 0 0 0 0 0 0 0 0 0 0 0 0 0 0 0 0 0 0
0 2 0 1 0 1 1 0 0 0 0 0 0 0 0 0 0 0 0 0 0 0 0 0 0 0 0 0 0 0 0 0 0 0 0 0 0 0 0 0 0 0 0 0 0 0 0
0 0 0 1 1 0 1 1 0 0 0 0 0 0 0 0 0 0 0 0 0 0 0 0 0 0 0 0 0 0 0 0 0 0 0 0 0 0 0 0 0 0 0 0 0 0 0
0 0 0 0 0 0 0 0 0 0 0 0 0 0 0 0 0 0 0 0 0 0 0 0 0 0 0 0 0 0 0 0 0 0 0 0 0 0 0 0 0 0 0 0 0 0 0
0 0 0 0 0 1 0 0 0 0 0 0 0 0 0 0 0 0 0 0 0 0 0 0 0 0 0 0 0 0 0 0 0 0 0 0 0 0 0 0 0 0 0 0 0 0 0
1 1 0 0 0 0 1 2 1 0 0 0 0 0 0 0 0 0 0 0 0 0 0 0 0 0 0 0 0 0 0 0 0 0 0 0 0 0 0 0 0 0 0 0 0 0 0
0 0 0 0 0 0 0 1 0 0 0 0 0 0 0 0 0 0 0 0 0 0 0 0 0 0 0 0 0 0 0 0 0 0 0 0 0 0 0 0 0 0 0 0 0 0 0
0 0 0 0 0 0 1 1 0 1 0 0 0 0 0 0 0 0 0 0 0 0 0 0 0 0 0 0 0 0 0 0 0 0 0 0 0 0 0 0 0 0 0 0 0 0 0
1 0 0 0 0 0 1 1 0 7 0 0 0 0 0 0 0 0 0 0 0 0 0 0 0 0 0 0 0 0 0 0 0 0 0 0 0 0 0 0 0 0 0 0 0 1 4
1 1 1 1 0 0 0 1 1 4 0 0 0 0 0 0 0 0 0 0 0 0 0 0 0 0 0 0 0 0 0 0 0 0 0 0 0 0 0 0 0 0 0 4 8 37 42
2 2 2 0 0 1 0 1 1 1 0 0 0 0 0 0 0 0 0 0 0 0 0 0 0 0 0 0 0 0 0 0 0 0 0 0 0 0 0 0 0 16 35 43 6 0 6
3 2 2 1 0 1 0 2 1 1 1 0 0 0 0 0 0 0 0 0 0 0 0 0 0 0 0 0 0 0 0 0 0 0 0 0 0 0 0 19 22 1 17 115 101 0 95
4 2 2 2 1 1 1 0 2 1 2 0 0 0 0 0 0 0 0 0 0 0 0 0 0 0 0 0 0 0 0 0 0 0 0 0 33 23 44 35 13 22 157 317 3 0 107
14 4 4 3 3 2 1 1 1 0 1 0 0 0 0 0 0 0 0 0 0 0 0 0 0 0 0 0 0 0 0 0 0 0 0 2 0 11 11 15 0 194 383 110 36 71 216
13 11 6 5 2 2 2 0 1 0 4 2 0 0 0 0 0 0 0 0 0 0 0 0 0 0 0 0 0 0 0 0 0 0 0 0 0 6 18 39 39 159 329 201 101 33 19
CIN
-0 -0 -0 -0 -0 -0 -0 -0 -0 -0 -0 -0 -0 -0 -0 -0 -0 -0 -0 -0 -0 -0 -0 -0 -0 -0 -0 -0 -0 -0 -0 -0 -0 -0 -0 -0 -0 -0 -0 -0 -0 -0 -0 -0 -0 -0 -0
-0 -0 -0 -0 -0 -0 -0 -0 -0 -0 -0 -0 -0 -0 -0 -0 -0 -0 -0 -0 -0 -0 -0 -0 -0 -0 -0 -0 -0 -0 -0 -0 -0 -0 -0 -0 -0 -0 -0 -0 -0 -0 -0 -0 -0 -0 -0
-0 -0 -0 -0 -0 -0 -0 -0 -0 -0 -0 -0 -0 -0 -0 -0 -0 -0 -0 -0 -0 -0 -0 -0 -0 -0 -0 -0 -0 -0 -0 -0 -0 -0 -0 -0 -0 -0 -0 -0 -0 -0 -0 -0 -0 -0 -0
-0 -0 -0 -0 -0 -0 -0 -0 -0 -0 -0 -0 -0 -0 -0 -0 -0 -0 -0 -0 -0 -0 -0 -0 -0 -0 -0 -0 -0 -0 -0 -0 -0 -0 -0 -0 -0 -0 -0 -0 -0 -0 -0 -0 -0 -0 -0
-0 -0 -0 -0 -0 -0 -0 -0 -0 -0 -0 -0 -0 -0 -0 -0 -0 -0 -0 -0 -0 -0 -0 -0 -0 -0 -0 -0 -0 -0 -0 -0 -0 -0 -0 -0 -0 -0 -0 -0 -0 -0 -0 -0 -0 -0 -0
-0 -0 -0 -0 -0 -0 -0 -0 -0 -0 -0 -0 -0 -0 -0 -0 -0 -0 -0 -0 -0 -0 -0 -0 -0 -0 -0 -0 -0 -0 -0 -0 -0 -0 -0 -0 -0 -0 -0 -0 -0 -0 -0 -0 -0 -0 -0
-0 -0 -0 -0 -0 -0 -0 -0 -0 -0 -0 -0 -0 -0 -0 -0 -0 -0 -0 -0 -0 -0 -0 -0 -0 -0 -0 -0 -0 -0 -0 -0 -0 -0 -0 -0 -0 -0 -0 -0 -0 -0 -0 -0 -0 -0 -0
-0 -0 -0 -0 -0 -0 -0 -0 -0 -0 -0 -0 -0 -0 -0 -0 -0 -0 -0 -0 -0 -0 -0 -0 -0 -0 -0 -0 -0 -0 -0 -0 -0 -0 -0 -0 -0 -0 -0 -0 -0 -0 -0 -0 -0 -0 -0
-0 -0 -0 -0 -0 -0 -0 -0 -0 -0 -0 -0 -0 -0 -0 -0 -0 -0 -0 -0 -0 -0 -0 -0 -0 -0 -0 -0 -0 -0 -0 -0 -0 -0 -0 -0 -0 -0 -0 -0 -0 -0 -0 -0 -0 -0 -0
-0 -0 -0 -0 -0 -0 -0 -0 -0 -0 -0 -0 -0 -0 -0 -0 -0 -0 -0 -0 -0 -0 -0 -0 -0 -0 -0 -0 -0 -0 -0 -0 -0 -0 -0 -0 -0 -0 -0 -0 -0 -0 -0 -0 -0 -0 -0
-0 -0 -0 -0 -0 -0 -0 -0 -0 -0 -0 -0 -0 -0 -0 -0 -0 -0 -0 -0 -0 -0 -0 -0 -0 -0 -0 -0 -0 -0 -0 -0 -0 -0 -0 -0 -0 -0 -0 -0 -0 -0 -0 -0 -0 -0 -0
-1 -0 -0 -0 -0 -0 -0 -0 -0 -0 -0 -0 -0 -0 -0 -0 -0 -0 -0 -0 -0 -0 -0 -0 -0 -0 -0 -0 -0 -0 -0 -0 -0 -0 -0 -0 -0 -0 -0 -0 -0 -0 -0 -0 -0 -0 -0
-1 -0 -0 -0 -0 -0 -0 -0 -0 -0 -0 -0 -0 -0 -0 -0 -0 -0 -0 -0 -0 -0 -0 -0 -0 -0 -0 -0 -0 -0 -0 -0 -0 -0 -0 -0 -0 -0 -0 -0 -0 -0 -0 -0 -0 -0 -0
-0 -0 -0 -0 -0 -0 -0 -0 -0 -0 -0 -0 -0 -0 -0 -0 -0 -0 -0 -0 -0 -0 -0 -0 -0 -0 -0 -0 -0 -0 -0 -0 -0 -0 -0 -0 -0 -0 -0 -0 -0 -0 -0 -0 -0 -0 -0
-0 -0 -0 -0 -0 -0 -0 -0 -0 -0 -0 -0 -0 -0 -0 -0 -0 -0 -0 -0 -0 -0 -0 -0 -0 -0 -0 -0 -0 -0 -0 -0 -0 -0 -0 -0 -0 -0 -0 -0 -0 -0 -0 -0 -0 -0 -0
-0 -0 -0 -0 -1 -1 -0 -0 -0 -0 -0 -0 -0 -0 -0 -0 -0 -0 -0 -0 -0 -0 -0 -0 -0 -0 -0 -0 -0 -0 -0 -0 -0 -0 -0 -0 -0 -0 -0 -0 -0 -0 -0 -0 -0 -0 -0
-0 -0 -0 -0 -0 -0 -0 -0 -0 -0 -0 -0 -0 -0 -0 -0 -0 -0 -0 -0 -0 -0 -0 -0 -0 -0 -0 -0 -0 -0 -0 -0 -0 -0 -0 -0 -0 -0 -0 -0 -0 -0 -0 -0 -0 -0 -0
-0 -0 -0 -0 -0 -0 -0 -0 -0 -0 -0 -0 -0 -0 -0 -0 -0 -0 -0 -0 -0 -0 -0 -0 -0 -0 -0 -0 -0 -0 -0 -0 -0 -0 -0 -0 -0 -0 -0 -0 -0 -0 -0 -0 -0 -0 -0
-0 -0 -0 -0 -0 -0 -0 -0 -0 -0 -0 -0 -0 -0 -0 -0 -0 -0 -0 -0 -0 -0 -0 -0 -0 -0 -0 -0 -0 -0 -0 -0 -0 -0 -0 -0 -0 -0 -0 -0 -0 -0 -0 -0 -0 -0 -0
-0 -0 -0 -0 -0 -0 -0 -0 -1 -0 -0 -0 -0 -0 -0 -0 -0 -0 -0 -0 -0 -0 -0 -0 -0 -0 -0 -0 -0 -0 -0 -0 -0 -0 -0 -0 -0 -0 -0 -0 -0 -0 -0 -0 -0 -0 -0
-1 -0 -0 -0 -0 -0 -0 -0 -3 -0 -0 -0 -0 -0 -0 -0 -0 -0 -0 -0 -0 -0 -0 -0 -0 -0 -0 -0 -0 -0 -0 -0 -0 -0 -0 -0 -0 -0 -0 -0 -0 -0 -0 -0 -0 -0 -0
-0 -0 -0 -0 -0 -0 -0 -0 -9 -3 -0 -0 -0 -0 -0 -0 -0 -0 -0 -0 -0 -0 -0 -0 -0 -0 -0 -0 -0 -0 -0 -0 -0 -0 -0 -0 -0 -0 -0 -0 -0 -0 -0 -0 -0 -0 -0
-0 -0 -0 -0 -0 -0 -0 -0 -0 -4 -0 -0 -0 -0 -0 -0 -0 -0 -0 -0 -0 -0 -0 -0 -0 -0 -0 -0 -0 -0 -0 -0 -0 -0 -0 -0 -0 -0 -0 -0 -0 -0 -0 -0 -0 -22 -86
-0 -0 -0 -0 -0 -0 -0 -0 -0 -5 -0 -0 -0 -0 -0 -0 -0 -0 -0 -0 -0 -0 -0 -0 -0 -0 -0 -0 -0 -0 -0 -0 -0 -0 -0 -0 -0 -0 -0 -0 -0 -0 -9 -59 -85 -95 -107
-0 -0 -0 -0 -0 -0 -0 -0 -0 -12 -2 -0 -0 -0 -0 -0 -0 -0 -0 -0 -0 -0 -0 -0 -0 -0 -0 -0 -0 -0 -0 -0 -0 -0 -0 -0 -0 -0 -0 -0 -0 -22 -62 -61 -34 -0 -32
-1 -0 -0 -0 -0 -0 -0 -0 -0 -0 -1 -0 -0 -0 -0 -0 -0 -0 -0 -0 -0 -0 -0 -0 -0 -0 -0 -0 -0 -0 -0 -0 -0 -0 -0 -0 -0 -0 -0 -20 -4 -4 -85 -58 -81 -0 -81
-9 -3 -0 -0 -0 -0 -0 -0 -0 -0 -0 -0 -0 -0 -0 -0 -0 -0 -0 -0 -0 -0 -0 -0 -0 -0 -0 -0 -0 -0 -0 -0 -0 -0 -0 -0 -66 -43 -30 -15 -46 -81 -88 -60 -13 -0 -65
-10 -7 -1 -1 -0 -0 -0 -0 -0 -0 -0 -0 -0 -0 -0 -0 -0 -0 -0 -0 -0 -0 -0 -0 -0 -0 -0 -0 -0 -0 -0 -0 -0 -0 -0 -27 -0 -43 -67 -26 -5 -85 -49 -33 -62 -114 -84
-8 -12 -9 -2 -1 -0 -0 -0 -0 -0 -24 -10 -0 -0 -0 -0 -0 -0 -0 -0 -0 -0 -0 -0 -0 -0 -0 -0 -0 -0 -0 -0 -0 -0 -0 -0 -0 -46 -43 -25 -79 -106 -69 -77 -104 -98 -104
Wind_Speed
21 21 21 21 22 23 23 24 24 25 27 27 27 27 26 25 24 22 22 21 18 16 16 14 11 11 13 14 12 12 15 16 15 14 13 13 13 11 9 7 4 4 6 3 6 5 9
22 22 22 23 23 24 24 25 26 27 28 29 29 28 28 26 25 25 23 21 20 19 17 13 11 12 14 16 14 15 15 15 14 12 12 12 12 11 9 7 9 6 0 11 28 24 18
23 23 23 24 25 25 26 27 28 27 29 30 29 28 29 28 27 26 24 23 21 17 15 10 13 14 14 13 16 14 14 13 13 13 10 10 11 12 14 13 13 11 10 3 4 15 17
25 25 25 25 26 27 27 28 29 29 30 31 30 31 30 29 28 26 26 25 19 12 16 15 15 15 13 13 14 12 11 12 12 12 13 11 11 12 12 15 17 15 16 17 16 17 22
26 26 26 26 27 28 29 29 30 31 32 32 32 32 31 31 30 28 28 23 21 18 17 15 16 16 14 16 14 12 10 12 13 12 11 12 15 14 16 17 19 20 17 20 21 21 26
26 27 27 28 28 29 30 31 32 33 33 33 34 34 33 32 31 28 28 20 18 18 17 15 15 16 14 16 18 15 11 9 12 15 16 14 14 12 14 14 14 17 18 17 14 23 32
27 27 28 28 29 30 31 32 33 34 34 35 35 35 34 34 30 27 26 19 23 20 21 15 16 14 13 17 19 13 13 13 14 14 15 17 12 7 7 11 7 9 11 12 11 29 26
28 28 29 29 30 31 32 33 34 35 36 36 36 36 36 35 29 26 24 21 23 21 24 19 8 9 5 14 16 15 12 12 14 15 16 17 9 7 17 14 11 10 10 8 18 23 20
29 29 30 31 32 32 33 34 35 36 36 37 37 37 37 36 28 23 23 23 26 21 20 20 14 14 14 11 12 13 9 13 13 16 14 14 11 25 22 22 21 21 16 20 18 23 22
30 31 31 32 33 33 34 35 36 36 37 37 37 38 38 37 22 26 22 27 28 19 20 17 17 16 13 13 15 13 9 13 16 18 15 14 19 25 23 21 25 23 23 23 25 30 29
31 32 32 33 34 34 35 36 36 37 38 38 38 39 38 31 27 23 23 30 25 17 19 15 16 15 15 13 18 15 14 12 17 17 18 17 23 25 25 27 27 26 26 27 25 28 27
32 33 33 34 35 36 36 37 38 39 40 40 41 40 39 26 23 21 27 27 17 18 18 18 16 18 16 16 16 16 12 15 18 20 17 19 18 20 23 28 25 31 29 26 26 27 31
33 34 34 35 35 36 37 38 39 40 41 42 42 41 36 23 23 24 26 18 18 17 19 19 18 20 19 19 19 12 11 16 16 20 22 22 19 20 26 30 28 35 34 31 28 28 27
34 34 35 35 36 37 38 38 39 41 41 43 42 40 26 17 19 25 21 17 16 18 18 19 20 21 18 21 18 20 16 17 20 19 19 19 21 23 25 27 31 28 25 26 28 29 30
34 34 35 35 36 37 37 38 39 41 42 43 41 33 24 20 18 19 19 16 16 17 18 22 20 18 20 21 19 20 19 18 19 20 21 23 22 21 26 30 27 28 27 23 23 24 27
34 35 35 35 36 37 37 38 39 40 41 41 35 30 21 21 15 21 17 15 15 18 21 19 20 19 22 24 22 22 19 19 18 20 19 19 25 22 25 25 25 23 23 25 26 28 29
34 34 35 35 36 36 36 37 38 39 40 36 27 25 21 18 18 20 17 16 17 25 20 16 18 20 21 21 20 20 19 17 21 21 20 21 23 27 27 28 27 22 23 25 23 23 26
34 34 35 35 36 36 36 36 36 36 38 28 24 23 18 21 19 18 17 19 22 23 20 19 17 17 18 19 20 19 18 19 27 21 23 22 23 27 27 24 19 18 24 25 28 28 26
34 34 34 35 35 35 34 34 34 33 31 28 28 22 20 17 19 20 20 19 19 21 22 19 18 18 17 19 21 18 20 23 24 22 22 21 24 29 30 23 24 24 25 26 25 25 28
34 34 34 34 34 34 34 33 32 31 30 25 23 22 20 17 16 18 22 20 22 22 18 24 21 20 20 21 21 21 24 22 23 21 23 21 22 24 29 28 28 30 30 27 27 28 31
34 34 34 34 34 34 33 32 32 30 29 23 20 21 19 21 21 22 21 20 23 25 23 23 21 20 21 23 22 23 24 26 25 21 23 23 27 25 26 27 32 30 29 31 27 26 28
35 35 35 34 34 33 33 32 32 29 29 22 23 22 22 24 23 24 22 22 24 25 22 26 21 20 21 22 21 26 27 25 25 24 28 26 29 28 32 33 31 30 31 27 25 25 28
34 34 35 34 34 33 33 32 31 28 24 23 22 22 22 24 23 24 22 24 24 26 22 22 23 24 24 23 21 24 23 24 26 30 32 28 28 31 37 32 31 33 27 24 24 24 26
34 34 34 34 34 33 33 32 30 29 22 22 22 23 25 28 25 24 24 26 27 28 24 25 23 23 24 24 22 25 28 28 29 30 24 28 26 26 33 28 32 26 22 22 26 24 20
34 34 34 34 33 33 32 32 31 29 23 23 22 23 26 31 27 30 27 27 28 28 25 24 24 25 28 24 29 31 32 31 27 24 24 16 19 23 25 25 27 25 23 23 26 28 19
32 32 33 33 33 33 32 32 31 30 27 22 24 22 24 29 31 26 28 27 28 28 27 24 25 27 24 23 24 27 30 28 27 28 21 23 17 17 20 25 26 21 25 23 23 32 17
30 30 31 32 32 32 32 31 31 31 30 23 24 20 24 30 30 25 26 26 24 24 26 26 27 26 24 24 24 25 26 24 28 26 27 26 22 20 21 24 25 23 19 17 28 24 24
29 29 30 31 31 32 31 31 31 31 30 22 25 22 23 28 33 26 23 24 26 26 27 25 26 21 23 24 24 24 24 23 23 21 23 22 23 23 22 24 26 18 19 22 19 23 25
25 26 26 28 30 31 31 31 31 30 28 23 25 21 21 27 29 25 31 31 28 26 25 24 23 23 21 22 21 20 22 20 20 24 19 21 21 22 17 22 23 23 19 21 19 20 23
Wind_Direction
311 313 312 314 315 316 316 316 316 316 318 318 315 312 308 302 296 290 286 280 272 261 256 242 216 195 87 68 116 90 54 66 78 97 105 103 101 86 73 86 138 94 36 10 12 248 354
313 312 313 315 316 317 318 318 319 320 322 322 319 315 310 303 297 293 288 281 273 267 255 224 175 112 70 40 87 93 72 68 75 88 89 103 87 74 70 64 41 48 249 250 276 261 248
314 314 315 316 318 319 320 321 321 320 322 320 317 313 310 305 301 297 290 284 276 260 241 142 68 66 59 76 49 72 81 69 65 68 91 104 69 39 29 22 27 27 12 343 138 33 23
316 316 317 318 319 321 321 322 322 322 321 321 318 316 312 309 304 298 295 290 274 263 36 37 45 30 59 77 50 72 77 52 45 67 67 69 41 25 30 18 12 17 25 25 22 19 8
318 318 319 319 321 321 322 322 323 323 322 321 320 318 315 311 307 302 303 297 331 20 32 42 9 15 29 352 37 62 86 47 32 27 41 24 12 15 12 17 16 18 29 6 355 5 356
319 320 321 321 321 321 321 323 324 324 322 322 322 320 317 314 310 305 308 344 10 12 15 19 5 5 18 13 2 24 58 71 21 358 359 5 10 28 16 20 27 18 9 4 358 350 336
319 319 319 320 321 321 322 323 323 323 322 322 322 320 318 315 310 308 327 349 339 349 349 351 353 359 3 351 347 13 26 33 19 4 8 353 13 67 41 18 12 5 1 355 349 335 340
318 318 318 318 319 320 321 322 322 322 323 322 321 320 318 315 308 315 348 355 344 347 327 345 1 0 18 356 356 351 15 12 6 2 359 347 18 30 355 1 6 3 354 341 352 349 350
315 315 317 318 318 319 319 319 320 320 320 319 319 319 318 314 303 340 341 349 338 353 341 341 8 7 9 34 11 3 29 8 9 0 359 360 11 337 347 348 354 355 358 354 356 357 359
316 316 317 317 316 316 316 316 317 317 317 316 317 318 320 315 338 328 337 329 325 352 336 346 353 2 18 13 356 353 26 7 1 359 3 360 353 347 351 354 352 355 359 354 348 345 346
315 315 315 315 315 315 315 315 315 315 314 314 314 317 319 330 328 334 335 321 329 354 334 352 357 8 360 358 339 351 348 353 350 351 351 347 338 340 345 343 346 344 345 345 346 343 344
314 316 316 316 316 316 316 316 315 315 314 313 312 315 319 338 338 341 325 327 351 336 333 339 350 335 338 342 343 340 348 340 347 343 348 341 350 350 345 342 349 341 340 341 342 343 338
313 313 314 313 314 315 315 315 314 314 313 312 310 309 318 341 334 334 328 341 332 332 333 327 330 332 335 339 339 350 346 334 341 341 336 340 343 343 343 336 340 337 337 334 336 340 340
312 312 314 314 314 313 313 314 314 314 312 312 308 307 334 346 344 328 337 333 326 330 330 334 330 332 341 336 339 332 342 338 338 339 340 341 338 345 347 347 338 340 346 342 335 336 335
315 314 313 314 314 315 315 316 316 316 314 313 312 325 328 335 349 348 333 321 324 327 332 325 325 328 327 331 334 333 340 340 343 344 337 334 334 347 346 343 344 337 336 342 336 339 337
314 314 315 314 313 314 316 317 317 317 316 315 321 324 325 330 350 337 327 320 325 333 326 335 325 328 320 323 327 327 334 337 340 346 352 344 332 343 347 350 349 348 349 339 342 336 335
315 315 314 314 313 313 315 317 318 319 317 319 329 323 330 343 335 328 320 319 323 319 321 333 328 323 324 325 326 328 330 342 344 338 342 342 334 331 341 341 342 347 346 347 344 340 335
314 314 314 314 313 312 313 315 318 321 320 331 326 317 328 327 324 326 321 320 318 318 323 322 326 331 330 331 327 325 327 329 330 340 335 337 334 331 336 344 350 351 344 344 336 332 330
314 314 315 315 314 313 313 312 315 319 328 323 316 317 323 321 313 317 316 316 320 320 320 322 324 328 331 327 324 329 328 332 335 336 332 334 329 326 326 337 340 340 339 337 337 333 326
313 313 314 314 314 313 312 312 312 315 319 323 316 311 314 323 320 315 312 311 311 316 320 323 320 322 323 324 326 321 320 328 332 338 337 336 328 326 322 324 328 326 330 331 331 326 326
310 312 312 312 312 312 311 310 310 312 314 317 312 306 311 305 304 310 312 310 307 309 311 318 316 322 320 316 318 320 323 322 324 330 332 331 319 320 321 324 323 320 322 325 324 324 323
308 308 308 309 310 310 309 308 307 310 310 305 299 300 303 298 302 302 304 305 306 306 311 308 312 316 318 316 318 313 318 322 320 323 321 324 317 319 315 321 319 318 321 322 322 324 322
309 308 307 306 306 307 307 306 305 307 311 299 299 300 296 294 296 296 297 300 301 308 305 313 311 312 313 315 316 316 316 316 313 312 311 312 313 314 312 322 320 316 321 322 324 325 326
305 307 307 305 305 305 305 303 302 304 305 298 296 296 290 285 287 289 294 298 297 300 300 305 313 311 314 318 321 321 316 314 312 309 306 307 306 309 311 321 311 325 333 329 325 327 331
303 303 304 304 303 302 302 301 297 297 297 293 293 290 285 282 284 285 290 293 295 297 299 301 308 313 310 317 313 312 315 318 321 327 329 330 318 311 312 314 318 320 326 332 329 326 337
305 303 302 302 301 300 299 298 295 293 295 291 289 287 285 282 279 285 287 291 292 293 295 297 305 311 316 313 315 313 314 319 321 322 336 337 334 317 320 318 317 328 330 329 333 321 360
305 305 303 302 300 298 296 295 293 289 290 285 285 286 282 279 281 285 283 286 292 293 293 299 302 304 313 310 309 310 312 319 315 316 321 327 329 319 316 315 316 326 330 342 321 330 341
303 303 302 302 300 297 294 292 290 285 284 281 282 282 278 279 278 286 286 283 285 288 289 297 303 306 308 305 307 309 312 319 319 324 328 329 325 322 321 316 314 340 334 330 339 335 330
305 304 304 303 300 296 292 289 287 282 279 280 277 285 283 278 281 288 282 280 280 283 287 291 295 303 310 311 312 317 314 320 321 318 323 325 331 322 320 317 319 328 328 331 345 347 343